Terug naar catalogus

ASNARO

ActiefWetenschapSSO
NORAD 40298·PAYLOAD·🇯🇵 Japan

Gelanceerd Nov 6, 2014 vanaf Dombarovsky

Loading…

Volgende Passages (komende 24 uur)

TLE

VersSource: Space-Track

Epoch: Sep 14, 2026, 15:33 UTC

1 40298U 14070A   26257.64838946  .00004544  00000-0  21602-3 0  9996
2 40298  97.3384 331.3218 0004188 185.0426 175.0767 15.19683469657594

Volg ASNARO in realtime met AllMySat

Download on the App Store